TimeCDT,TemperatureF,Dew PointF,Humidity,Sea Level PressureIn,VisibilityMPH,Wind Direction,Wind SpeedMPH,Gust SpeedMPH,PrecipitationIn,Events,Conditions,WindDirDegrees,DateUTC
12:56 AM,52.0,45.0,77,30.01,10.0,Calm,Calm,-,N/A,,Clear,0,2012-11-02 05:56:00
1:56 AM,46.9,43.0,86,30.00,10.0,Calm,Calm,-,N/A,,Clear,0,2012-11-02 06:56:00
2:56 AM,48.0,44.1,86,30.00,10.0,Calm,Calm,-,N/A,,Clear,0,2012-11-02 07:56:00
3:56 AM,48.0,44.1,86,30.00,10.0,Calm,Calm,-,N/A,,Clear,0,2012-11-02 08:56:00
4:56 AM,51.1,46.0,83,30.00,10.0,Calm,Calm,-,N/A,,Clear,0,2012-11-02 09:56:00
5:56 AM,45.0,42.1,90,30.01,10.0,Calm,Calm,-,N/A,,Clear,0,2012-11-02 10:56:00
6:56 AM,45.0,42.1,90,30.02,10.0,Calm,Calm,-,N/A,,Clear,0,2012-11-02 11:56:00
7:56 AM,53.1,48.0,83,30.03,10.0,Calm,Calm,-,N/A,,Clear,0,2012-11-02 12:56:00
8:56 AM,61.0,54.0,78,30.04,10.0,Calm,Calm,-,N/A,,Clear,0,2012-11-02 13:56:00
9:56 AM,70.0,57.9,65,30.05,10.0,Calm,Calm,-,N/A,,Clear,0,2012-11-02 14:56:00
10:56 AM,75.0,57.9,55,30.05,10.0,SW,6.9,-,N/A,,Clear,220,2012-11-02 15:56:00
11:56 AM,78.1,59.0,52,30.03,10.0,Variable,4.6,-,N/A,,Clear,0,2012-11-02 16:56:00
12:56 PM,78.1,61.0,56,29.99,10.0,Variable,3.5,-,N/A,,Mostly Cloudy,0,2012-11-02 17:56:00
1:56 PM,79.0,62.1,56,29.97,10.0,WSW,3.5,-,N/A,,Mostly Cloudy,250,2012-11-02 18:56:00
2:56 PM,82.0,63.0,52,29.96,10.0,WNW,4.6,-,N/A,,Mostly Cloudy,300,2012-11-02 19:56:00
3:56 PM,80.1,62.1,54,29.96,10.0,Calm,Calm,-,N/A,,Clear,0,2012-11-02 20:56:00
4:56 PM,75.9,64.9,69,29.95,10.0,Calm,Calm,-,N/A,,Clear,0,2012-11-02 21:56:00
5:56 PM,75.0,63.0,66,29.96,10.0,Calm,Calm,-,N/A,,Clear,0,2012-11-02 22:56:00
6:56 PM,72.0,62.1,71,29.97,10.0,Calm,Calm,-,N/A,,Clear,0,2012-11-02 23:56:00
7:56 PM,69.1,61.0,75,29.99,10.0,Calm,Calm,-,N/A,,Clear,0,2012-11-03 00:56:00
8:56 PM,66.9,62.1,84,30.00,10.0,Calm,Calm,-,N/A,,Clear,0,2012-11-03 01:56:00
9:56 PM,64.9,62.1,90,30.01,10.0,Calm,Calm,-,N/A,,Clear,0,2012-11-03 02:56:00
10:56 PM,64.9,63.0,93,30.02,10.0,Calm,Calm,-,N/A,,Clear,0,2012-11-03 03:56:00
11:56 PM,64.9,63.0,93,30.02,5.0,Calm,Calm,-,N/A,,Clear,0,2012-11-03 04:56:00